Location: DAV
(33.5613°N, 82.7640°W)
Time: 03:04:20
(UTC-04:00)

Hubble Space Telescope - Visible Passes

Search period start: 22 April 2018 00:00
Search period end: 02 May 2018 00:00
Orbit: 537 x 541 km, 28.5° (Epoch: 21 April)

Date Brightness Start Highest point End Pass type
(mag) Time Alt. Az. Time Alt. Az. Time Alt. Az.
24 Apr 2.7 21:37:28 10° SSW 21:39:00 16° S 21:39:00 16° S visible
25 Apr 2.2 21:26:45 10° SSW 21:29:52 22° SSE 21:29:52 22° SSE visible
26 Apr 1.9 21:16:09 10° SW 21:19:35 25° SSE 21:20:37 23° SE visible
27 Apr 1.8 21:05:36 10° SW 21:09:11 29° SSE 21:11:13 19° ESE visible
27 Apr 3.5 22:46:11 10° WSW 22:46:35 12° WSW 22:46:35 12° WSW visible
28 Apr 1.7 20:55:07 10° SW 20:58:50 32° S 21:01:42 15° ESE visible
28 Apr 3.0 22:35:50 10° WSW 22:37:04 18° WSW 22:37:04 18° WSW visible
29 Apr 1.6 20:44:40 10° WSW 20:48:28 35° S 20:52:06 11° ESE visible
29 Apr 2.5 22:25:30 10° WSW 22:27:28 24° WSW 22:27:28 24° WSW visible
30 Apr 1.5 20:34:15 10° WSW 20:38:06 38° S 20:41:57 10° ESE visible
30 Apr 2.1 22:15:12 10° WSW 22:17:47 29° SW 22:17:47 29° SW visible
01 May 1.9 22:04:54 10° WSW 22:08:03 32° SSW 22:08:03 32° SSW visible
